Location: Ciula Mare
(45.6000°N, 22.8167°E)
Time: 10:50:01
(UTC+00:00)

Cosmos 1844 Rocket - Pass Details

Date: 03 February 2023
Orbit: 826 x 843 km, 71.0° (Epoch: 20 March)

Event Time Altitude Azimuth Distance (km) Brightness Sun altitude
Rises 15:58:19 0° 339° (NNW) 3,376 5.9 -4.2°
Reaches altitude 10° 16:01:02 10° 350° (N) 2,438 5.0 -4.7°
Maximum altitude 16:05:59 32° 52° (NE) 1,398 3.4 -5.5°
Drops below altitude 10° 16:10:55 10° 115° (ESE) 2,426 4.7 -6.3°
Sets 16:13:36 0° 125° (SE) 3,356 5.4 -6.8°
